Time,TemperatureF,DewpointF,PressureIn,WindDirection,WindDirectionDegrees,WindSpeedMPH,WindSpeedGustMPH,Humidity,HourlyPrecipIn,Conditions,Clouds,dailyrainin,SolarRadiationWatts/m^2,SoftwareType,DateUTC
2013-04-09 00:02:00,70.0,68.0,-100.00,SE,131,6.0,13.0,93,0.00,,,0.00,0.000000,,2013-04-09 05:02:00,
2013-04-09 00:12:00,70.0,68.0,-100.00,SE,131,6.0,13.0,93,0.00,,,0.00,0.000000,,2013-04-09 05:12:00,
2013-04-09 00:22:00,70.0,68.0,-100.00,SE,131,6.0,13.0,93,0.00,,,0.00,0.000000,,2013-04-09 05:22:00,
2013-04-09 00:52:00,70.0,68.0,-100.00,SE,129,8.0,16.0,94,0.00,,,0.00,0.000000,,2013-04-09 05:52:00,
2013-04-09 01:02:00,70.0,68.0,-100.00,SE,129,8.0,16.0,94,0.00,,,0.00,0.000000,,2013-04-09 06:02:00,
2013-04-09 01:12:00,70.0,68.0,-100.00,SE,129,8.0,16.0,94,0.00,,,0.00,0.000000,,2013-04-09 06:12:00,
2013-04-09 01:22:00,70.0,68.0,-100.00,SE,129,8.0,16.0,94,0.00,,,0.00,0.000000,,2013-04-09 06:22:00,
2013-04-09 01:52:00,70.0,68.0,-100.00,SE,132,9.0,17.0,93,0.00,,,0.00,0.000000,,2013-04-09 06:52:00,
2013-04-09 02:02:00,70.0,68.0,-100.00,SE,132,9.0,17.0,93,0.00,,,0.00,0.000000,,2013-04-09 07:02:00,
2013-04-09 02:13:00,70.0,68.0,-100.00,SE,132,9.0,17.0,93,0.00,,,0.00,0.000000,,2013-04-09 07:13:00,
2013-04-09 02:22:00,70.0,68.0,-100.00,SE,132,9.0,17.0,93,0.00,,,0.00,0.000000,,2013-04-09 07:22:00,
2013-04-09 02:53:00,70.0,68.0,-100.00,SE,144,7.0,16.0,92,0.00,,,0.00,0.000000,,2013-04-09 07:53:00,
2013-04-09 03:03:00,70.0,68.0,-100.00,SE,144,7.0,16.0,92,0.00,,,0.00,0.000000,,2013-04-09 08:03:00,
2013-04-09 03:12:00,70.0,68.0,-100.00,SE,144,7.0,16.0,92,0.00,,,0.00,0.000000,,2013-04-09 08:12:00,
2013-04-09 03:22:00,70.0,68.0,-100.00,SE,144,7.0,16.0,92,0.00,,,0.00,0.000000,,2013-04-09 08:22:00,
2013-04-09 03:52:00,70.0,68.0,-100.00,SE,139,6.0,12.0,93,0.00,,,0.00,0.000000,,2013-04-09 08:52:00,
2013-04-09 04:02:00,70.0,68.0,-100.00,SE,139,6.0,12.0,93,0.00,,,0.00,0.000000,,2013-04-09 09:02:00,
2013-04-09 04:12:00,70.0,68.0,-100.00,SE,139,6.0,12.0,93,0.00,,,0.00,0.000000,,2013-04-09 09:12:00,
2013-04-09 04:22:00,70.0,68.0,-100.00,SE,139,6.0,12.0,93,0.00,,,0.00,0.000000,,2013-04-09 09:22:00,
2013-04-09 04:53:00,70.0,68.0,-100.00,SE,134,6.0,12.0,93,0.00,,,0.00,0.000000,,2013-04-09 09:53:00,
2013-04-09 05:03:00,70.0,68.0,-100.00,SE,134,6.0,12.0,93,0.00,,,0.00,0.000000,,2013-04-09 10:03:00,
2013-04-09 05:13:00,70.0,68.0,-100.00,SE,134,6.0,12.0,93,0.00,,,0.00,0.000000,,2013-04-09 10:13:00,
2013-04-09 05:23:00,70.0,68.0,-100.00,SE,134,6.0,12.0,93,0.00,,,0.00,0.000000,,2013-04-09 10:23:00,
2013-04-09 05:53:00,69.0,67.0,-100.00,SE,135,5.0,12.0,94,0.00,,,0.00,0.000000,,2013-04-09 10:53:00,
2013-04-09 06:02:00,69.0,67.0,-100.00,SE,135,5.0,12.0,94,0.00,,,0.00,0.000000,,2013-04-09 11:02:00,
2013-04-09 06:12:00,69.0,67.0,-100.00,SE,135,5.0,12.0,94,0.00,,,0.00,0.000000,,2013-04-09 11:12:00,
2013-04-09 06:22:00,69.0,67.0,-100.00,SE,135,5.0,12.0,94,0.00,,,0.00,0.000000,,2013-04-09 11:22:00,
2013-04-09 06:52:00,70.0,68.0,-100.00,SE,133,5.0,12.0,94,0.00,,,0.00,0.000000,,2013-04-09 11:52:00,
2013-04-09 07:02:00,70.0,68.0,-100.00,SE,133,5.0,12.0,94,0.00,,,0.00,0.000000,,2013-04-09 12:02:00,
2013-04-09 07:12:00,70.0,68.0,-100.00,SE,133,5.0,12.0,94,0.00,,,0.00,0.000000,,2013-04-09 12:12:00,
2013-04-09 07:22:00,70.0,68.0,-100.00,SE,133,5.0,12.0,94,0.00,,,0.00,0.000000,,2013-04-09 12:22:00,
2013-04-09 07:53:00,70.0,68.0,-100.00,SE,131,5.0,10.0,94,0.00,,,0.00,18.000000,,2013-04-09 12:53:00,
2013-04-09 08:02:00,70.0,68.0,-100.00,SE,131,5.0,10.0,94,0.00,,,0.00,18.000000,,2013-04-09 13:02:00,
2013-04-09 08:12:00,70.0,68.0,-100.00,SE,131,5.0,10.0,94,0.00,,,0.00,18.000000,,2013-04-09 13:12:00,
2013-04-09 08:23:00,70.0,68.0,-100.00,SE,131,5.0,10.0,94,0.00,,,0.00,18.000000,,2013-04-09 13:23:00,
2013-04-09 08:53:00,75.0,69.0,-100.00,SE,143,7.0,15.0,82,0.00,,,0.00,263.000000,,2013-04-09 13:53:00,
2013-04-09 09:03:00,75.0,69.0,-100.00,SE,143,7.0,15.0,82,0.00,,,0.00,263.000000,,2013-04-09 14:03:00,
2013-04-09 09:12:00,75.0,69.0,-100.00,SE,143,7.0,15.0,82,0.00,,,0.00,263.000000,,2013-04-09 14:12:00,
2013-04-09 09:22:00,75.0,69.0,-100.00,SE,143,7.0,15.0,82,0.00,,,0.00,263.000000,,2013-04-09 14:22:00,
2013-04-09 09:52:00,77.0,69.0,-100.00,SE,136,7.0,16.0,76,0.00,,,0.00,513.000000,,2013-04-09 14:52:00,
2013-04-09 10:02:00,77.0,69.0,-100.00,SE,136,7.0,16.0,76,0.00,,,0.00,513.000000,,2013-04-09 15:02:00,
2013-04-09 10:12:00,77.0,69.0,-100.00,SE,136,7.0,16.0,76,0.00,,,0.00,513.000000,,2013-04-09 15:12:00,
2013-04-09 10:22:00,77.0,69.0,-100.00,SE,136,7.0,16.0,76,0.00,,,0.00,513.000000,,2013-04-09 15:22:00,
2013-04-09 10:53:00,79.0,68.0,-100.00,SE,130,9.0,18.0,70,0.00,,,0.00,734.000000,,2013-04-09 15:53:00,
2013-04-09 11:03:00,79.0,68.0,-100.00,SE,130,9.0,18.0,70,0.00,,,0.00,734.000000,,2013-04-09 16:03:00,
2013-04-09 11:13:00,79.0,68.0,-100.00,SE,130,9.0,18.0,70,0.00,,,0.00,734.000000,,2013-04-09 16:13:00,
2013-04-09 11:23:00,79.0,68.0,-100.00,SE,130,9.0,18.0,70,0.00,,,0.00,734.000000,,2013-04-09 16:23:00,
2013-04-09 11:54:00,79.0,68.0,-100.00,SE,124,9.0,20.0,70,0.00,,,0.00,892.000000,,2013-04-09 16:54:00,
2013-04-09 12:02:00,79.0,68.0,-100.00,SE,124,9.0,20.0,70,0.00,,,0.00,892.000000,,2013-04-09 17:02:00,
2013-04-09 12:13:00,79.0,68.0,-100.00,SE,124,9.0,20.0,70,0.00,,,0.00,892.000000,,2013-04-09 17:13:00,
2013-04-09 12:23:00,79.0,68.0,-100.00,SE,124,9.0,20.0,70,0.00,,,0.00,892.000000,,2013-04-09 17:23:00,
2013-04-09 12:54:00,79.0,67.0,-100.00,ESE,123,11.0,23.0,66,0.00,,,0.00,978.000000,,2013-04-09 17:54:00,
2013-04-09 13:02:00,79.0,67.0,-100.00,ESE,123,11.0,23.0,66,0.00,,,0.00,978.000000,,2013-04-09 18:02:00,
2013-04-09 13:13:00,79.0,67.0,-100.00,ESE,123,11.0,23.0,66,0.00,,,0.00,978.000000,,2013-04-09 18:13:00,
2013-04-09 13:22:00,79.0,67.0,-100.00,ESE,123,11.0,23.0,66,0.00,,,0.00,978.000000,,2013-04-09 18:22:00,
2013-04-09 13:53:00,78.0,68.0,-100.00,SE,129,11.0,21.0,71,0.00,,,0.00,662.000000,,2013-04-09 18:53:00,
2013-04-09 14:03:00,78.0,68.0,-100.00,SE,129,11.0,21.0,71,0.00,,,0.00,662.000000,,2013-04-09 19:03:00,
2013-04-09 14:12:00,78.0,68.0,-100.00,SE,129,11.0,21.0,71,0.00,,,0.00,662.000000,,2013-04-09 19:12:00,
2013-04-09 14:22:00,78.0,68.0,-100.00,SE,129,11.0,21.0,71,0.00,,,0.00,662.000000,,2013-04-09 19:22:00,
2013-04-09 14:53:00,78.0,67.0,-100.00,SE,133,13.0,23.0,70,0.00,,,0.00,618.000000,,2013-04-09 19:53:00,
2013-04-09 15:02:00,78.0,67.0,-100.00,SE,133,13.0,23.0,70,0.00,,,0.00,618.000000,,2013-04-09 20:02:00,
2013-04-09 15:12:00,78.0,67.0,-100.00,SE,133,13.0,23.0,70,0.00,,,0.00,618.000000,,2013-04-09 20:12:00,
2013-04-09 15:22:00,78.0,67.0,-100.00,SE,133,13.0,23.0,70,0.00,,,0.00,618.000000,,2013-04-09 20:22:00,
2013-04-09 15:53:00,79.0,68.0,-100.00,SE,134,12.0,24.0,69,0.00,,,0.00,765.000000,,2013-04-09 20:53:00,
2013-04-09 16:02:00,79.0,68.0,-100.00,SE,134,12.0,24.0,69,0.00,,,0.00,765.000000,,2013-04-09 21:02:00,
2013-04-09 16:13:00,79.0,68.0,-100.00,SE,134,12.0,24.0,69,0.00,,,0.00,765.000000,,2013-04-09 21:13:00,
2013-04-09 16:22:00,79.0,68.0,-100.00,SE,134,12.0,24.0,69,0.00,,,0.00,765.000000,,2013-04-09 21:22:00,
2013-04-09 16:53:00,79.0,68.0,-100.00,SE,131,12.0,24.0,70,0.00,,,0.00,624.000000,,2013-04-09 21:53:00,
2013-04-09 17:03:00,79.0,68.0,-100.00,SE,131,12.0,24.0,70,0.00,,,0.00,624.000000,,2013-04-09 22:03:00,
2013-04-09 17:13:00,79.0,68.0,-100.00,SE,131,12.0,24.0,70,0.00,,,0.00,624.000000,,2013-04-09 22:13:00,
2013-04-09 17:23:00,79.0,68.0,-100.00,SE,131,12.0,24.0,70,0.00,,,0.00,624.000000,,2013-04-09 22:23:00,
2013-04-09 17:53:00,76.0,68.0,-100.00,SE,131,9.0,20.0,77,0.00,,,0.00,235.000000,,2013-04-09 22:53:00,
2013-04-09 18:03:00,76.0,68.0,-100.00,SE,131,9.0,20.0,77,0.00,,,0.00,235.000000,,2013-04-09 23:03:00,
2013-04-09 18:12:00,76.0,68.0,-100.00,SE,131,9.0,20.0,77,0.00,,,0.00,235.000000,,2013-04-09 23:12:00,
2013-04-09 18:22:00,76.0,68.0,-100.00,SE,131,9.0,20.0,77,0.00,,,0.00,235.000000,,2013-04-09 23:22:00,
2013-04-09 18:53:00,74.0,68.0,-100.00,ESE,120,8.0,17.0,81,0.00,,,0.00,166.000000,,2013-04-09 23:53:00,
2013-04-09 19:03:00,74.0,68.0,-100.00,ESE,120,8.0,17.0,81,0.00,,,0.00,166.000000,,2013-04-10 00:03:00,
2013-04-09 19:12:00,74.0,68.0,-100.00,ESE,120,8.0,17.0,81,0.00,,,0.00,166.000000,,2013-04-10 00:12:00,
2013-04-09 19:23:00,74.0,68.0,-100.00,ESE,120,8.0,17.0,81,0.00,,,0.00,166.000000,,2013-04-10 00:23:00,
2013-04-09 19:53:00,73.0,68.0,-100.00,ESE,122,7.0,18.0,84,0.00,,,0.00,23.000000,,2013-04-10 00:53:00,
2013-04-09 20:02:00,73.0,68.0,-100.00,ESE,122,7.0,18.0,84,0.00,,,0.00,23.000000,,2013-04-10 01:02:00,
2013-04-09 20:12:00,73.0,68.0,-100.00,ESE,122,7.0,18.0,84,0.00,,,0.00,23.000000,,2013-04-10 01:12:00,
2013-04-09 20:23:00,73.0,68.0,-100.00,ESE,122,7.0,18.0,84,0.00,,,0.00,23.000000,,2013-04-10 01:23:00,
2013-04-09 20:53:00,72.0,68.0,-100.00,ESE,123,7.0,19.0,86,0.00,,,0.00,0.000000,,2013-04-10 01:53:00,
2013-04-09 21:02:00,72.0,68.0,-100.00,ESE,123,7.0,19.0,86,0.00,,,0.00,0.000000,,2013-04-10 02:02:00,
2013-04-09 21:12:00,72.0,68.0,-100.00,ESE,123,7.0,19.0,86,0.00,,,0.00,0.000000,,2013-04-10 02:12:00,
2013-04-09 21:22:00,72.0,68.0,-100.00,ESE,123,7.0,19.0,86,0.00,,,0.00,0.000000,,2013-04-10 02:22:00,
2013-04-09 21:53:00,72.0,68.0,-100.00,ESE,121,7.0,17.0,87,0.00,,,0.00,0.000000,,2013-04-10 02:53:00,
2013-04-09 22:03:00,72.0,68.0,-100.00,ESE,121,7.0,17.0,87,0.00,,,0.00,0.000000,,2013-04-10 03:03:00,
2013-04-09 22:12:00,72.0,68.0,-100.00,ESE,121,7.0,17.0,87,0.00,,,0.00,0.000000,,2013-04-10 03:12:00,
2013-04-09 22:22:00,72.0,68.0,-100.00,ESE,121,7.0,17.0,87,0.00,,,0.00,0.000000,,2013-04-10 03:22:00,
2013-04-09 22:53:00,71.0,67.0,-100.00,SE,127,7.0,14.0,88,0.00,,,0.00,0.000000,,2013-04-10 03:53:00,
2013-04-09 23:03:00,71.0,67.0,-100.00,SE,127,7.0,14.0,88,0.00,,,0.00,0.000000,,2013-04-10 04:03:00,
2013-04-09 23:13:00,71.0,67.0,-100.00,SE,127,7.0,14.0,88,0.00,,,0.00,0.000000,,2013-04-10 04:13:00,
2013-04-09 23:23:00,71.0,67.0,-100.00,SE,127,7.0,14.0,88,0.00,,,0.00,0.000000,,2013-04-10 04:23:00,
2013-04-09 23:53:00,70.0,67.0,-100.00,SE,124,6.0,13.0,89,0.00,,,0.00,0.000000,,2013-04-10 04:53:00,